Hourly Data Report for April 11, 2010

YELLOWKNIFE A
NORTHWEST TERRITORIES

62°27'46.000" N
114°26'25.000" W
205.70 m
2204100
71936
YZF

Download Data

Hourly Data (April 2010)
Hourly Data Report for April 11, 2010
TIME
LST
Temp Definition
°C
Dew Point Definition
°C
Rel Hum Definition
%
Precip. Amount Definition
mm

Wind Dir Definition
10's deg

Wind Spd Definition
km/h
Visibility Definition
km
Stn Press Definition
kPa
Hmdx Definition


Wind Chill Definition


Weather Definition


00:00 -9.4 -16.1 58   6 9 24.1 100.59   -14 Snow
01:00 -9.3 -16.1 58   6 9 24.1 100.61   -14 Snow
02:00 -9.3 -16.2 57   6 7 24.1 100.64   -13 Snow
03:00 -9.2 -16.0 58   10 9 24.1 100.68   -14 Snow
04:00 -9.8 -16.5 58   9 7 24.1 100.69   -14 Mostly Cloudy
05:00 -11.2 -17.3 61     0 24.1 100.74     Mainly Clear
06:00 -11.9 -17.7 62   7 4 24.1 100.78   -14 Mainly Clear
07:00 -10.5 -17.5 56     0 24.1 100.82     Mainly Clear
08:00 -9.4 -17.0 54     0 24.1 100.83     Mainly Clear
09:00 -8.3 -16.8 50     0 24.1 100.82     Mainly Clear
10:00 -7.6 -16.2 50     0 24.1 100.81     Mainly Clear
11:00 -6.3 -15.5 48     0 24.1 100.78     Mainly Clear
12:00 -5.1 -15.5 44   28 6 24.1 100.79   -8 Clear
13:00 -5.4 -15.3 46     0 24.1 100.79     Clear
14:00 -4.2 -14.6 44     0 24.1 100.79     Mainly Clear
15:00 -3.5 -14.2 43     0 24.1 100.73     Mainly Clear
16:00 -3.2 -14.0 43     0 24.1 100.71     Mainly Clear
17:00 -3.9 -14.4 44   15 7 24.1 100.67   -7 Mainly Clear
18:00 -4.7 -14.4 47     0 24.1 100.65     Mainly Clear
19:00 -6.4 -14.8 51   18 4 24.1 100.63   -8 Clear
20:00 -8.3 -15.8 55   18 9 24.1 100.64   -13 Clear
21:00 -9.3 -16.1 58     0 24.1 100.62     Clear
22:00 -10.1 -16.8 58     0 24.1 100.60     Clear
23:00 -9.7 -16.7 57     0 24.1 100.54     Clear

Notes on Data Quality.

Legend

  • E = Estimated
  • M = Missing
  • NA = Not Available*
  • [empty] = Indicates an unobserved value
Date modified: